SHT4A EGLL-EGAC

Flight info

Callsign SHT4A
Flight time 0h 58m
Altitude 36000
Route ULTIB1J ULTIB T420 TNT UL28 RODOL UM65 TENSO L603 BELOX DCT REMSI DCT NINEB M148 MAGEE DCT
Aircraft A21N/M-SDE3FGHIJ1LRWXYZ/SB1G1

Departure

Time 2026-04-26 13:01
Airport London Heathrow Airport (EGLL)

Arrival

Time 2026-04-26 13:59
Airport George Best Belfast City Airport (EGAC)
Time Latitude Longitude Altitude Speed Heading
2026-04-26 12:33 51.46921 -0.48718 92 ft 0 kts 360°
2026-04-26 12:49 51.46911 -0.48717 94 ft 4 kts 353°
2026-04-26 12:49 51.46888 -0.48705 92 ft 4 kts 317°
2026-04-26 12:50 51.46877 -0.48672 92 ft 3 kts 272°
2026-04-26 12:50 51.46877 -0.48667 92 ft 0 kts 270°
2026-04-26 12:54 51.46877 -0.48668 92 ft 1 kts 270°
2026-04-26 12:54 51.46877 -0.48681 92 ft 2 kts 270°
2026-04-26 12:54 51.46872 -0.48726 94 ft 6 kts 246°
2026-04-26 12:55 51.46827 -0.48753 93 ft 6 kts 180°
2026-04-26 12:55 51.46812 -0.48753 95 ft 0 kts 177°
2026-04-26 12:56 51.46807 -0.48753 95 ft 2 kts 177°
2026-04-26 12:56 51.46782 -0.48751 93 ft 5 kts 179°
2026-04-26 12:56 51.46735 -0.48752 93 ft 8 kts 179°
2026-04-26 12:57 51.46673 -0.48750 92 ft 9 kts 179°
2026-04-26 12:57 51.46615 -0.48764 96 ft 2 kts 199°
2026-04-26 12:57 51.46610 -0.48767 95 ft 0 kts 197°
2026-04-26 12:59 51.46597 -0.48773 94 ft 3 kts 197°
2026-04-26 12:59 51.46563 -0.48789 93 ft 7 kts 192°
2026-04-26 12:59 51.46504 -0.48769 95 ft 11 kts 142°
2026-04-26 13:00 51.46477 -0.48623 93 ft 22 kts 92°
2026-04-26 13:00 51.46478 -0.48013 92 ft 90 kts 89°
2026-04-26 13:00 51.46483 -0.46693 94 ft 144 kts 89°
2026-04-26 13:00 51.46494 -0.44922 403 ft 160 kts 89°
2026-04-26 13:01 51.46520 -0.43122 1056 ft 165 kts 89°
2026-04-26 13:01 51.46566 -0.41233 1674 ft 177 kts 81°
2026-04-26 13:01 51.47204 -0.39412 2159 ft 201 kts 49°
2026-04-26 13:01 51.48196 -0.37699 2942 ft 218 kts 50°
2026-04-26 13:02 51.49273 -0.35743 3489 ft 247 kts 50°
2026-04-26 13:02 51.50434 -0.33587 4331 ft 261 kts 51°
2026-04-26 13:02 51.51629 -0.31328 5245 ft 268 kts 53°
2026-04-26 13:02 51.52541 -0.28724 6204 ft 270 kts 69°
2026-04-26 13:03 51.53182 -0.25869 7221 ft 274 kts 71°
2026-04-26 13:03 51.53812 -0.22951 8169 ft 279 kts 71°
2026-04-26 13:03 51.54464 -0.19977 9131 ft 285 kts 68°
2026-04-26 13:03 51.55582 -0.17330 10076 ft 292 kts 40°
2026-04-26 13:04 51.57369 -0.15748 10819 ft 303 kts 15°
2026-04-26 13:04 51.59535 -0.15418 11255 ft 326 kts 356°
2026-04-26 13:04 51.61818 -0.16206 11714 ft 345 kts 335°
2026-04-26 13:04 51.63834 -0.18337 12584 ft 350 kts 318°
2026-04-26 13:05 51.65660 -0.20973 13583 ft 355 kts 316°
2026-04-26 13:05 51.67510 -0.23661 14537 ft 360 kts 316°
2026-04-26 13:05 51.69398 -0.26354 15409 ft 365 kts 317°
2026-04-26 13:05 51.71327 -0.29066 16271 ft 370 kts 317°
2026-04-26 13:06 51.73283 -0.31799 17109 ft 375 kts 317°
2026-04-26 13:06 51.75267 -0.34571 17920 ft 380 kts 317°
2026-04-26 13:06 51.77276 -0.37380 18707 ft 384 kts 317°
2026-04-26 13:06 51.79312 -0.40227 19356 ft 389 kts 317°
2026-04-26 13:07 51.81476 -0.42887 20040 ft 394 kts 326°
2026-04-26 13:07 51.83825 -0.45193 20734 ft 397 kts 327°
2026-04-26 13:07 51.86217 -0.47490 21401 ft 401 kts 327°
2026-04-26 13:07 51.88623 -0.49810 22058 ft 404 kts 327°
2026-04-26 13:08 51.91012 -0.52126 22700 ft 407 kts 327°
2026-04-26 13:08 51.93455 -0.54500 23349 ft 410 kts 327°
2026-04-26 13:08 51.95913 -0.56897 23964 ft 414 kts 327°
2026-04-26 13:08 51.98389 -0.59314 24499 ft 417 kts 327°
2026-04-26 13:09 52.00876 -0.61753 25029 ft 420 kts 327°
2026-04-26 13:09 52.03384 -0.64207 25547 ft 422 kts 327°
2026-04-26 13:09 52.05909 -0.66680 26047 ft 425 kts 326°
2026-04-26 13:09 52.08450 -0.69174 26534 ft 427 kts 326°
2026-04-26 13:10 52.11001 -0.71689 27012 ft 430 kts 326°
2026-04-26 13:10 52.13564 -0.74228 27480 ft 432 kts 326°
2026-04-26 13:10 52.16143 -0.76781 27930 ft 435 kts 326°
2026-04-26 13:10 52.18735 -0.79345 28372 ft 437 kts 326°
2026-04-26 13:11 52.21340 -0.81923 28814 ft 439 kts 326°
2026-04-26 13:11 52.23960 -0.84509 29320 ft 439 kts 326°
2026-04-26 13:11 52.26569 -0.87080 29942 ft 437 kts 326°
2026-04-26 13:11 52.29159 -0.89643 30530 ft 435 kts 325°
2026-04-26 13:12 52.31734 -0.92209 31032 ft 433 kts 325°
2026-04-26 13:12 52.34294 -0.94767 31526 ft 431 kts 325°
2026-04-26 13:12 52.36857 -0.97318 32017 ft 429 kts 325°
2026-04-26 13:12 52.39403 -0.99857 32485 ft 428 kts 325°
2026-04-26 13:13 52.41933 -1.02395 32948 ft 426 kts 325°
2026-04-26 13:13 52.44460 -1.04934 33383 ft 425 kts 325°
2026-04-26 13:13 52.46979 -1.07455 33818 ft 423 kts 325°
2026-04-26 13:13 52.49486 -1.09973 34218 ft 423 kts 325°
2026-04-26 13:14 52.54512 -1.15018 34303 ft 422 kts 325°
2026-04-26 13:14 52.59518 -1.20080 34294 ft 422 kts 325°
2026-04-26 13:15 52.64484 -1.25096 34289 ft 421 kts 325°
2026-04-26 13:15 52.68668 -1.29332 34289 ft 421 kts 325°
2026-04-26 13:16 52.74465 -1.35226 34352 ft 421 kts 324°
2026-04-26 13:16 52.79446 -1.40317 34349 ft 420 kts 324°
2026-04-26 13:17 52.86906 -1.47954 34348 ft 420 kts 324°
2026-04-26 13:18 52.94342 -1.55594 34343 ft 419 kts 324°
2026-04-26 13:19 53.01770 -1.63259 34337 ft 419 kts 324°
2026-04-26 13:19 53.06719 -1.68391 34338 ft 419 kts 324°
2026-04-26 13:20 53.11612 -1.73498 34336 ft 418 kts 324°
2026-04-26 13:20 53.16556 -1.78645 34332 ft 418 kts 324°
2026-04-26 13:21 53.21488 -1.83787 34331 ft 418 kts 323°
2026-04-26 13:21 53.26492 -1.88761 34322 ft 419 kts 326°
2026-04-26 13:22 53.31573 -1.93565 34328 ft 419 kts 326°
2026-04-26 13:22 53.36646 -1.98374 34325 ft 419 kts 326°
2026-04-26 13:23 53.41711 -2.03198 34319 ft 419 kts 326°
2026-04-26 13:23 53.46741 -2.07994 34320 ft 419 kts 325°
2026-04-26 13:24 53.51800 -2.12835 34322 ft 418 kts 325°
2026-04-26 13:24 53.56820 -2.17783 34311 ft 415 kts 320°
2026-04-26 13:24 53.59016 -2.20883 34311 ft 409 kts 309°
2026-04-26 13:25 53.60748 -2.24610 34322 ft 403 kts 298°
2026-04-26 13:25 53.62977 -2.33182 34320 ft 398 kts 288°
2026-04-26 13:26 53.64924 -2.41924 34318 ft 398 kts 288°
2026-04-26 13:26 53.66889 -2.50594 34317 ft 398 kts 288°
2026-04-26 13:27 53.68874 -2.59326 34313 ft 398 kts 288°
2026-04-26 13:27 53.70845 -2.68052 34317 ft 398 kts 288°
2026-04-26 13:28 53.72818 -2.76784 34317 ft 398 kts 288°
2026-04-26 13:28 53.74772 -2.85524 34317 ft 398 kts 287°
2026-04-26 13:29 53.76723 -2.94276 34319 ft 398 kts 287°
2026-04-26 13:29 53.78673 -3.03054 34322 ft 398 kts 287°
2026-04-26 13:30 53.80608 -3.11773 34318 ft 398 kts 287°
2026-04-26 13:30 53.82551 -3.20569 34322 ft 400 kts 287°
2026-04-26 13:30 53.83517 -3.24937 34084 ft 392 kts 287°
2026-04-26 13:31 53.84467 -3.29260 33154 ft 395 kts 287°
2026-04-26 13:31 53.85428 -3.33646 32379 ft 397 kts 287°
2026-04-26 13:31 53.86384 -3.38027 31793 ft 395 kts 287°
2026-04-26 13:31 53.87336 -3.42394 31212 ft 394 kts 287°
2026-04-26 13:32 53.88284 -3.46744 30659 ft 392 kts 287°
2026-04-26 13:32 53.89228 -3.51076 30053 ft 391 kts 287°
2026-04-26 13:32 53.90162 -3.55385 29549 ft 387 kts 287°
2026-04-26 13:32 53.91085 -3.59661 28923 ft 385 kts 287°
2026-04-26 13:33 53.91999 -3.63898 28442 ft 381 kts 287°
2026-04-26 13:33 53.92909 -3.68127 27822 ft 381 kts 287°
2026-04-26 13:33 53.93811 -3.72330 27333 ft 378 kts 287°
2026-04-26 13:33 53.94710 -3.76521 26716 ft 378 kts 287°
2026-04-26 13:34 53.95609 -3.80701 26174 ft 377 kts 288°
2026-04-26 13:34 53.96714 -3.84734 25664 ft 378 kts 296°
2026-04-26 13:34 53.98017 -3.88609 25126 ft 378 kts 297°
2026-04-26 13:34 53.98446 -3.89863 24939 ft 378 kts 297°
2026-04-26 13:35 54.00641 -3.96281 24041 ft 377 kts 297°
2026-04-26 13:35 54.01952 -4.00139 23441 ft 376 kts 297°
2026-04-26 13:35 54.02967 -4.03145 23017 ft 373 kts 297°
2026-04-26 13:35 54.04244 -4.06943 22494 ft 368 kts 297°
2026-04-26 13:36 54.05511 -4.10710 21928 ft 366 kts 297°
2026-04-26 13:36 54.06845 -4.14358 21431 ft 362 kts 302°
2026-04-26 13:36 54.08290 -4.17858 20909 ft 359 kts 303°
2026-04-26 13:36 54.09731 -4.21312 20416 ft 355 kts 303°
2026-04-26 13:37 54.10675 -4.23575 20117 ft 352 kts 303°
2026-04-26 13:37 54.12083 -4.26966 19673 ft 349 kts 303°
2026-04-26 13:37 54.13472 -4.30335 19244 ft 346 kts 303°
2026-04-26 13:37 54.14848 -4.33682 18823 ft 343 kts 303°
2026-04-26 13:38 54.16217 -4.37014 18381 ft 342 kts 303°
2026-04-26 13:38 54.17580 -4.40325 17923 ft 340 kts 303°
2026-04-26 13:38 54.18933 -4.43611 17548 ft 336 kts 303°
2026-04-26 13:38 54.20274 -4.46873 17146 ft 334 kts 303°
2026-04-26 13:39 54.21603 -4.50109 16740 ft 332 kts 303°
2026-04-26 13:39 54.22927 -4.53333 16347 ft 330 kts 303°
2026-04-26 13:39 54.24224 -4.56500 15976 ft 327 kts 303°
2026-04-26 13:39 54.25519 -4.59677 15622 ft 324 kts 303°
2026-04-26 13:40 54.26808 -4.62838 15272 ft 322 kts 303°
2026-04-26 13:40 54.28084 -4.65972 14931 ft 319 kts 302°
2026-04-26 13:40 54.29348 -4.69085 14581 ft 317 kts 302°
2026-04-26 13:40 54.30603 -4.72182 14236 ft 316 kts 302°
2026-04-26 13:41 54.31852 -4.75259 13879 ft 314 kts 302°
2026-04-26 13:41 54.33091 -4.78313 13546 ft 310 kts 302°
2026-04-26 13:41 54.34319 -4.81343 13232 ft 309 kts 302°
2026-04-26 13:41 54.35546 -4.84375 12902 ft 309 kts 302°
2026-04-26 13:42 54.36764 -4.87390 12553 ft 307 kts 302°
2026-04-26 13:42 54.37978 -4.90396 12221 ft 306 kts 302°
2026-04-26 13:42 54.39185 -4.93395 11898 ft 305 kts 301°
2026-04-26 13:42 54.40373 -4.96345 11591 ft 303 kts 301°
2026-04-26 13:43 54.41569 -4.99318 11284 ft 303 kts 301°
2026-04-26 13:43 54.42752 -5.02264 11085 ft 296 kts 301°
2026-04-26 13:43 54.43898 -5.05121 10875 ft 286 kts 301°
2026-04-26 13:43 54.45017 -5.07906 10692 ft 280 kts 301°
2026-04-26 13:44 54.46120 -5.10614 10509 ft 272 kts 301°
2026-04-26 13:44 54.47184 -5.13230 10257 ft 264 kts 300°
2026-04-26 13:44 54.48230 -5.15813 9837 ft 262 kts 300°
2026-04-26 13:44 54.49267 -5.18377 9422 ft 260 kts 300°
2026-04-26 13:45 54.50297 -5.20930 9004 ft 259 kts 301°
2026-04-26 13:45 54.51294 -5.23484 8595 ft 255 kts 294°
2026-04-26 13:45 54.51757 -5.26353 8157 ft 246 kts 268°
2026-04-26 13:45 54.51541 -5.29237 7756 ft 242 kts 255°
2026-04-26 13:46 54.51144 -5.32045 7358 ft 241 kts 254°
2026-04-26 13:46 54.50726 -5.34835 6966 ft 240 kts 253°
2026-04-26 13:46 54.50304 -5.37612 6581 ft 239 kts 253°
2026-04-26 13:46 54.49877 -5.40378 6178 ft 239 kts 253°
2026-04-26 13:47 54.49450 -5.43107 5773 ft 239 kts 253°
2026-04-26 13:47 54.49014 -5.45866 5386 ft 239 kts 253°
2026-04-26 13:47 54.48570 -5.48629 5053 ft 240 kts 253°
2026-04-26 13:47 54.48121 -5.51394 5009 ft 240 kts 253°
2026-04-26 13:48 54.47669 -5.54159 5011 ft 241 kts 253°
2026-04-26 13:48 54.47215 -5.56926 4994 ft 236 kts 253°
2026-04-26 13:48 54.46776 -5.59591 4991 ft 230 kts 253°
2026-04-26 13:48 54.46341 -5.62231 5002 ft 230 kts 253°
2026-04-26 13:49 54.45909 -5.64845 4877 ft 225 kts 253°
2026-04-26 13:49 54.45478 -5.67437 4446 ft 226 kts 253°
2026-04-26 13:49 54.45036 -5.70061 3825 ft 232 kts 253°
2026-04-26 13:49 54.44581 -5.72716 3469 ft 229 kts 253°
2026-04-26 13:50 54.44133 -5.75298 3220 ft 223 kts 253°
2026-04-26 13:50 54.43690 -5.77843 2996 ft 222 kts 253°
2026-04-26 13:50 54.43245 -5.80386 2995 ft 222 kts 253°
2026-04-26 13:50 54.42799 -5.82933 2999 ft 223 kts 253°
2026-04-26 13:51 54.42354 -5.85454 2991 ft 214 kts 253°
2026-04-26 13:51 54.41939 -5.87795 2955 ft 196 kts 253°
2026-04-26 13:51 54.41557 -5.89930 2956 ft 181 kts 253°
2026-04-26 13:51 54.41283 -5.92025 3112 ft 181 kts 265°
2026-04-26 13:52 54.41239 -5.94182 3051 ft 180 kts 268°
2026-04-26 13:52 54.41202 -5.96325 3018 ft 180 kts 268°
2026-04-26 13:52 54.41165 -5.98476 3000 ft 180 kts 268°
2026-04-26 13:52 54.41188 -6.00604 2986 ft 182 kts 280°
2026-04-26 13:53 54.41564 -6.02703 3007 ft 182 kts 288°
2026-04-26 13:53 54.41967 -6.04726 3006 ft 181 kts 289°
2026-04-26 13:53 54.42686 -6.06475 2983 ft 184 kts 322°
2026-04-26 13:53 54.43909 -6.07037 2990 ft 187 kts
2026-04-26 13:54 54.45105 -6.06536 2979 ft 169 kts 20°
2026-04-26 13:54 54.46148 -6.05642 2984 ft 168 kts 28°
2026-04-26 13:54 54.47146 -6.04594 3070 ft 169 kts 31°
2026-04-26 13:55 54.49107 -6.02381 2883 ft 168 kts 32°
2026-04-26 13:55 54.49744 -6.01628 2773 ft 167 kts 33°
2026-04-26 13:55 54.51969 -5.98984 2267 ft 165 kts 33°
2026-04-26 13:56 54.52904 -5.97871 2048 ft 165 kts 33°
2026-04-26 13:56 54.53848 -5.96746 1820 ft 165 kts 33°
2026-04-26 13:56 54.54776 -5.95641 1605 ft 155 kts 33°
2026-04-26 13:56 54.55601 -5.94656 1360 ft 136 kts 33°
2026-04-26 13:57 54.56370 -5.93739 1208 ft 133 kts 33°
2026-04-26 13:57 54.57125 -5.92838 1040 ft 131 kts 33°
2026-04-26 13:57 54.57865 -5.91953 830 ft 128 kts 33°
2026-04-26 13:57 54.58590 -5.91080 686 ft 126 kts 34°
2026-04-26 13:58 54.59304 -5.90240 518 ft 123 kts 33°
2026-04-26 13:58 54.60001 -5.89403 336 ft 122 kts 34°
2026-04-26 13:58 54.60699 -5.88582 211 ft 121 kts 33°
2026-04-26 13:58 54.61386 -5.87762 40 ft 118 kts 34°
2026-04-26 13:59 54.61954 -5.87082 22 ft 65 kts 34°
2026-04-26 13:59 54.62168 -5.86825 23 ft 16 kts 35°
2026-04-26 13:59 54.62239 -5.86756 28 ft 5 kts 73°
2026-04-26 14:00 54.62108 -5.86894 22 ft 14 kts 214°
2026-04-26 14:00 54.62017 -5.87003 22 ft 18 kts 214°
2026-04-26 14:00 54.61947 -5.87090 22 ft 19 kts 216°
2026-04-26 14:01 54.61812 -5.87119 23 ft 17 kts 128°
2026-04-26 14:01 54.61742 -5.86995 27 ft 14 kts 172°
2026-04-26 14:01 54.61686 -5.87036 27 ft 4 kts 213°
2026-04-26 14:01 54.61652 -5.87076 27 ft 7 kts 215°
2026-04-26 14:02 54.61604 -5.87138 27 ft 10 kts 217°
2026-04-26 14:02 54.61544 -5.87211 27 ft 10 kts 214°
2026-04-26 14:02 54.61497 -5.87216 27 ft 6 kts 155°
2026-04-26 14:02 54.61469 -5.87194 27 ft 1 kts 155°
2026-04-26 14:03 54.61467 -5.87192 27 ft 0 kts 155°